EW6571 Weather Reports


Display with metric or nautical units.
time (UTC)temp
F
wind
direction
speed
MPH
gust
MPH
rain 1hr
in
rain 24hr
in
rain mn
in
humidity
%
barometer
mb
20260506073035 31 166 2.0 6.0 0.00 0.00 0.00 66 1008.9
20260506071518 32 162 0.0 5.0 0.00 0.00 0.00 63 1009.0
20260506061503 36 156 2.0 5.0 0.00 0.00 0.00 56 1008.2
20260506044647 40 28 3.0 8.0 0.00 0.00 0.00 61 1007.1
20260506043046 41 61 2.0 10.0 0.00 0.00 0.00 53 1006.7
20260506041538 43 252 1.0 10.0 0.00 0.00 0.00 45 1006.1
20260506040037 45 73 4.0 12.0 0.00 0.00 0.00 42 1005.7
20260506034600 45 25 2.0 11.0 0.00 0.00 0.00 40 1004.7
20260506033035 46 23 0.0 5.0 0.00 0.00 0.00 39 1004.4
20260506031529 46 338 0.0 2.0 0.00 0.00 0.00 39 1003.5
20260506030027 45 322 0.0 5.0 0.00 0.00 0.00 42 1002.9
20260506024523 45 247 1.0 7.0 0.00 0.00 0.00 41 1002.2
20260506023021 46 292 0.0 11.0 0.00 0.00 0.00 38 1001.8
20260506021519 47 282 9.0 13.0 0.00 0.00 0.00 38 1001.4
20260506020018 48 298 5.0 11.0 0.00 0.00 0.00 35 1000.9
20260506014526 51 298 0.0 11.0 0.00 0.00 0.00 34 1000.8
20260506013017 50 300 9.0 14.0 0.00 0.00 0.00 31 1000.6
20260506011518 53 305 5.0 13.0 0.00 0.00 0.00 28 1000.6
20260506010017 54 313 5.0 15.0 0.00 0.00 0.00 28 1000.3
20260506004530 54 288 11.0 16.0 0.00 0.00 0.00 28 1000.3
20260506003022 55 316 8.0 15.0 0.00 0.00 0.00 26 1000.2
20260506001515 56 299 10.0 17.0 0.00 0.00 0.00 26 1000.1
20260506000013 55 317 8.0 16.0 0.00 0.00 0.00 27 1000.4
20260505234519 57 316 3.0 12.0 0.00 0.00 0.00 28 1000.1
20260505233012 56 298 8.0 14.0 0.00 0.00 0.00 30 1000.0
20260505231515 57 329 9.0 19.0 0.00 0.00 0.00 28 1000.1
20260505230012 58 308 13.0 19.0 0.00 0.00 0.00 28 999.7
20260505224510 58 283 13.0 19.0 0.00 0.00 0.00 27 999.6
20260505223108 58 291 13.0 21.0 0.00 0.00 0.00 28 999.4
20260505221507 59 302 8.0 21.0 0.00 0.00 0.00 29 999.1
20260505220018 59 299 9.0 22.0 0.00 0.00 0.00 28 998.8
20260505214504 57 302 10.0 16.0 0.00 0.00 0.00 31 998.8
20260505213002 57 311 9.0 13.0 0.00 0.00 0.00 34 998.7
20260505211502 56 298 5.0 14.0 0.00 0.00 0.00 40 998.7
20260505210002 54 275 2.0 12.0 0.00 0.00 0.00 51 998.7
20260505204608 51 178 2.0 10.0 0.00 0.00 0.00 59 998.8
20260505203057 53 232 5.0 11.0 0.00 0.00 0.00 54 999.3
20260505201557 54 278 3.0 8.0 0.00 0.00 0.00 41 999.3
20260505200059 55 295 2.0 10.0 0.00 0.00 0.00 39 999.4
20260505194555 54 303 4.0 9.0 0.00 0.00 0.00 47 999.5
20260505193058 55 294 6.0 10.0 0.00 0.00 0.00 40 999.5
20260505191558 56 291 6.0 9.0 0.00 0.00 0.00 36 999.5
20260505190053 57 292 2.0 13.0 0.00 0.00 0.00 34 999.4
20260505184556 57 296 7.0 15.0 0.00 0.00 0.00 36 999.6
20260505183049 57 15 2.0 10.0 0.00 0.00 0.00 36 999.6
20260505181547 56 63 3.0 8.0 0.00 0.00 0.00 38 999.6
20260505180053 55 298 5.0 9.0 0.00 0.00 0.00 40 999.8
20260505174602 55 64 1.0 9.0 0.00 0.00 0.00 45 999.9
20260505173039 54 300 7.0 11.0 0.00 0.00 0.00 44 1000.1
20260505171536 53 299 3.0 12.0 0.00 0.00 0.00 45 1000.0
20260505170036 53 300 6.0 10.0 0.00 0.00 0.00 51 1000.0
20260505164533 51 273 2.0 6.0 0.00 0.00 0.00 54 1000.1
20260505163033 51 271 5.0 11.0 0.00 0.00 0.00 59 1000.3
20260505161529 52 262 1.0 4.0 0.00 0.00 0.00 60 1000.4
20260505153023 48 254 4.0 8.0 0.00 0.00 0.00 68 1000.9
20260505151519 48 250 3.0 8.0 0.00 0.00 0.00 68 1000.9
20260505124600 44 199 4.0 15.0 0.00 0.00 0.00 77 1001.0
20260505123113 44 176 6.0 14.0 0.00 0.00 0.00 76 1000.9
20260505121554 45 169 6.0 10.0 0.00 0.00 0.00 75 1000.9
20260505120051 45 180 4.0 12.0 0.00 0.00 0.00 72 1001.0
20260505114610 46 187 6.0 10.0 0.00 0.00 0.00 68 1001.0
20260505113046 47 195 2.0 5.0 0.00 0.00 0.00 66 1001.1
20260505111601 47 241 2.0 5.0 0.00 0.00 0.00 64 1001.3
20260505101544 47 259 3.0 4.0 0.00 0.00 0.00 65 1001.4
20260505100042 47 259 0.0 0.0 0.00 0.00 0.00 62 1001.2
20260505094546 47 259 0.0 2.0 0.00 0.00 0.00 62 1001.1
20260505093041 48 259 1.0 4.0 0.00 0.00 0.00 60 1001.0
20260505091541 49 246 5.0 9.0 0.00 0.00 0.00 57 1000.8
20260505090048 47 307 1.0 9.0 0.00 0.00 0.00 66 1000.8
20260505084539 47 263 0.0 2.0 0.00 0.00 0.00 66 1000.8
20260505083046 47 263 2.0 8.0 0.00 0.00 0.00 66 1000.8
20260505081545 46 213 0.0 4.0 0.00 0.00 0.00 69 1000.9
20260505080039 46 213 1.0 5.0 0.00 0.00 0.00 68 1001.1
20260505074538 46 213 0.0 5.0 0.00 0.00 0.00 67 1001.2